Theta_e
318 318 317 316 316 316 316 316 317 317 317 317 317 316 314 312 311 309 307 306 307 307 307 307 306 307 307 307 308 307 306 308 310 312 313 311 310 313 315 313 312 313 312 311 311 312 312 311 311 312 315 317 317 317 315 320 326 327 335 330 324 328 323 321 323 320 320 322 319 316 317 319 316 315 313 312 316 317 316 320 320 324 327 326 327 324 324 333
318 317 316 315 315 316 316 316 316 316 316 317 317 316 314 313 312 310 308 306 307 308 308 307 306 307 307 307 308 306 308 311 313 313 312 311 312 314 317 316 314 313 311 311 311 312 312 312 311 313 318 318 315 317 317 317 323 332 333 324 331 339 324 321 324 318 317 319 318 316 316 317 317 316 314 315 316 316 316 317 320 326 330 329 327 325 328 332
318 317 315 315 316 315 316 316 316 316 316 316 316 315 314 313 312 310 308 306 306 308 309 307 306 307 307 307 307 307 309 311 311 312 311 313 316 315 316 318 316 313 311 311 312 310 313 313 310 314 318 319 317 318 321 318 318 329 329 321 335 342 323 319 321 317 316 316 318 317 314 315 315 315 313 316 317 315 318 318 319 323 336 338 328 326 330 331
317 316 315 315 316 315 315 315 315 315 316 316 315 314 313 312 311 310 309 306 306 307 308 307 306 307 307 307 308 309 310 309 309 311 310 312 318 317 314 315 313 312 312 313 312 312 314 312 310 315 318 317 319 318 319 320 316 319 326 327 331 328 320 317 318 318 316 314 317 317 315 314 314 313 313 317 317 316 318 319 319 322 340 339 326 327 329 329
316 315 314 315 315 314 314 315 315 315 315 315 314 313 312 311 310 310 309 306 306 306 306 307 306 307 307 307 308 310 310 308 310 315 311 312 318 316 312 312 312 312 312 313 314 313 313 310 310 317 319 315 317 319 317 318 317 315 318 326 325 319 316 316 317 317 314 313 317 317 316 315 313 313 315 317 319 320 318 317 319 320 337 339 329 327 327 328
316 315 314 314 314 315 314 315 315 314 314 314 314 312 312 312 310 310 309 307 306 306 306 306 306 306 307 307 309 312 311 308 312 316 313 313 317 314 312 312 312 312 312 315 314 312 313 312 311 316 317 315 316 319 316 313 315 319 316 318 320 318 316 317 317 317 314 315 318 318 315 314 314 315 315 315 317 319 316 316 315 315 328 332 328 327 328 328
316 315 314 313 313 315 314 314 314 314 314 314 313 313 313 312 310 309 308 307 306 306 306 305 306 306 307 307 311 314 312 311 313 316 315 315 315 313 312 312 312 312 312 313 312 314 316 314 313 315 316 315 315 315 315 313 316 322 319 314 316 316 317 317 316 317 317 317 318 315 313 314 317 316 312 312 316 317 313 310 307 311 322 326 326 327 327 327
316 315 314 313 313 314 313 314 313 313 314 314 314 313 313 312 309 309 308 307 306 306 305 305 305 306 308 309 312 313 312 312 314 316 315 314 314 311 312 313 312 312 312 312 312 315 315 314 313 313 316 315 314 314 313 314 316 319 319 316 315 315 316 317 317 319 318 317 315 313 314 316 316 313 312 316 320 318 315 310 311 319 325 327 328 328 326 326
315 314 314 313 313 313 313 313 313 313 313 313 314 313 313 311 309 308 308 307 306 306 305 305 305 306 310 310 311 311 310 313 315 316 313 312 312 311 313 313 312 313 313 313 313 313 313 315 315 313 315 314 313 314 314 316 318 318 318 318 317 315 315 315 316 319 319 316 314 314 316 317 314 312 315 320 320 316 317 320 325 331 334 330 329 328 325 326
315 315 314 313 312 312 312 312 312 313 312 313 313 313 313 311 309 308 307 307 306 306 306 305 306 308 312 311 309 308 311 315 316 314 312 311 312 312 313 313 314 315 314 313 312 311 313 315 314 313 315 314 312 313 314 314 316 319 320 319 318 317 315 315 315 316 317 317 315 316 317 317 314 314 317 318 314 312 319 326 324 334 344 334 329 327 324 325
315 314 314 313 312 312 311 311 311 312 312 312 312 313 313 311 310 308 307 307 306 307 306 306 306 309 313 311 309 309 313 317 316 313 311 311 312 312 314 314 314 315 314 313 312 312 314 313 310 312 314 314 313 314 314 313 314 317 320 317 318 320 316 314 316 314 315 315 314 316 316 316 314 316 318 315 312 312 319 326 323 331 341 331 328 327 323 323
315 314 313 313 312 311 310 310 310 311 311 311 312 312 312 312 311 309 308 307 307 307 306 307 307 310 312 309 309 311 315 317 315 313 311 311 312 313 314 313 314 316 315 313 313 314 315 314 312 314 315 314 315 315 315 315 315 316 318 316 319 325 320 314 315 315 315 314 315 316 313 315 316 317 318 314 313 314 316 323 324 326 328 324 324 325 323 322
314 314 313 313 312 311 311 310 310 310 310 310 311 312 312 312 311 310 307 307 308 308 307 307 308 310 310 308 311 313 316 317 314 313 311 311 313 313 313 313 313 315 315 314 314 314 315 315 315 315 315 317 317 313 314 316 315 316 317 319 320 323 320 314 315 315 315 315 315 313 311 317 320 317 315 313 313 313 315 320 322 322 320 318 318 320 321 319
314 314 313 313 312 312 311 311 311 311 310 310 310 311 311 312 312 310 308 307 309 309 308 308 309 311 308 308 312 314 316 315 314 312 311 312 313 313 313 313 314 314 315 315 314 314 316 315 313 314 313 317 315 312 318 319 318 317 313 322 323 316 319 320 316 317 314 314 315 311 311 319 321 318 315 313 312 313 316 319 319 318 317 316 316 316 317 315
314 314 313 313 312 312 311 311 311 311 311 310 310 311 312 312 311 309 308 308 309 310 309 309 311 311 308 309 312 315 315 314 313 312 311 313 312 313 314 314 314 313 314 314 314 315 315 314 315 317 314 314 314 315 322 321 324 323 312 321 323 313 323 326 317 317 315 313 314 311 314 320 319 320 316 313 314 315 317 320 319 318 317 316 315 314 315 313
314 313 313 313 312 312 311 311 310 310 310 310 310 311 311 311 310 309 309 309 310 310 309 311 312 309 307 310 313 314 314 313 313 312 312 313 312 313 314 314 314 313 314 314 315 315 313 316 316 315 315 315 316 320 323 321 326 327 316 319 322 316 322 322 315 317 317 315 315 313 316 321 318 319 316 312 315 316 317 322 322 321 320 317 315 313 313 312
314 313 313 312 312 311 311 310 310 310 310 311 311 310 310 310 309 309 310 310 311 311 311 313 312 308 306 309 313 315 313 312 313 313 314 313 313 314 313 314 313 312 314 313 315 314 313 317 314 313 318 318 318 320 319 316 319 322 318 319 322 320 319 318 318 317 315 316 317 315 316 320 320 320 319 315 313 314 318 322 323 323 322 320 317 314 313 312
314 313 313 312 311 311 310 310 310 310 310 310 310 310 311 312 311 311 312 312 312 311 311 311 309 309 309 309 314 315 313 313 313 314 314 314 314 314 314 314 312 312 315 315 314 313 315 318 317 320 322 316 315 317 318 318 319 320 319 318 318 317 315 318 321 316 314 316 317 317 317 320 321 319 320 317 311 313 318 318 317 318 318 318 316 315 314 312
314 313 313 312 311 310 309 309 309 310 310 310 311 312 312 312 312 312 313 312 310 307 310 310 308 311 312 311 315 315 313 313 313 314 314 315 314 314 314 313 314 316 316 316 314 314 320 321 317 319 319 317 316 315 320 325 323 322 324 325 324 320 317 320 321 316 314 317 318 319 318 320 321 317 319 317 311 312 317 317 316 315 315 314 313 313 312 312
313 313 313 312 311 310 309 309 309 310 310 311 312 312 312 313 313 314 313 313 311 307 310 311 310 315 315 314 316 314 313 313 313 314 314 314 314 314 314 313 318 319 317 320 317 315 321 321 317 319 318 319 319 316 318 320 320 321 325 328 326 321 319 317 318 317 314 316 318 318 317 319 319 317 317 315 310 311 315 317 317 316 314 313 313 313 313 313
313 313 313 312 311 310 309 309 309 310 310 311 312 313 313 312 312 313 313 313 309 306 310 311 311 316 315 314 314 312 312 313 312 314 314 314 314 314 314 315 317 317 317 322 319 315 319 319 318 320 317 316 317 316 316 317 318 321 322 324 321 319 319 316 316 318 314 314 318 317 318 318 317 317 316 312 311 313 316 316 316 315 313 312 312 313 314 312
313 313 312 311 310 309 309 310 310 310 311 311 312 314 316 311 308 310 310 310 306 306 310 311 313 317 313 312 313 312 314 315 313 315 314 314 314 314 315 316 316 316 316 317 318 317 318 319 319 318 314 313 314 315 318 322 325 325 322 321 320 318 318 317 316 316 314 314 320 323 321 318 316 316 315 314 314 313 313 313 313 313 312 311 311 312 312 311
314 313 312 310 309 309 310 310 311 311 311 311 311 312 315 312 310 310 308 308 307 308 311 312 317 320 315 312 313 312 313 314 314 315 314 314 315 315 316 315 316 317 316 317 319 318 317 319 319 315 312 314 314 315 319 322 323 325 323 319 319 319 318 318 317 317 314 313 318 322 319 316 315 318 317 313 311 312 313 314 313 312 312 311 311 311 311 311
313 312 311 310 308 310 310 310 311 310 310 311 311 313 313 311 312 311 309 310 309 310 310 310 316 320 316 313 313 313 313 314 314 314 313 314 315 314 315 316 317 317 316 318 318 317 318 316 313 313 314 317 317 315 318 318 316 322 331 330 325 324 322 317 317 319 316 314 316 317 316 319 321 325 326 317 311 312 313 313 315 315 312 310 311 311 311 311
312 311 310 309 310 311 311 311 311 310 311 311 311 313 312 311 311 311 312 311 309 310 309 308 313 316 315 313 313 314 313 314 315 313 312 313 314 314 313 313 316 317 316 317 316 317 317 311 311 315 317 321 320 317 319 321 317 317 328 331 326 330 328 320 321 323 320 317 314 311 314 324 327 327 329 322 317 315 313 313 317 316 311 310 312 312 310 311
311 310 309 310 311 312 311 312 311 310 311 311 312 313 312 311 310 310 313 313 310 310 309 309 311 312 313 314 315 316 313 313 313 312 313 312 312 313 312 312 314 316 316 315 316 318 316 312 315 320 320 321 320 318 318 320 319 315 318 321 324 333 329 321 320 319 320 316 310 312 317 320 321 319 319 320 320 320 318 318 318 314 310 310 311 311 312 313
310 310 309 310 312 312 312 313 311 310 312 312 313 313 311 311 310 309 312 312 311 311 309 308 308 310 313 313 314 314 313 314 312 311 313 313 311 311 313 313 312 314 315 315 317 316 315 316 317 321 324 321 319 319 316 318 321 316 316 321 328 330 325 326 325 320 322 317 316 324 323 315 317 316 316 318 320 321 320 319 318 315 313 313 310 310 313 315
310 309 309 311 312 312 313 313 311 310 312 311 312 312 311 311 310 309 312 311 310 310 308 307 307 311 313 311 313 314 313 315 315 313 312 311 311 312 315 316 315 317 314 314 317 314 315 320 319 321 325 322 321 322 317 321 325 318 316 322 327 327 328 334 334 328 322 313 318 327 317 313 323 323 320 316 314 319 321 319 318 318 318 319 319 317 316 315
310 309 310 311 312 312 313 314 311 310 311 310 311 312 310 310 308 310 312 309 309 310 308 307 308 312 313 310 312 314 314 315 316 314 312 311 311 311 314 315 316 318 313 315 322 317 315 317 317 320 322 320 322 320 316 322 327 319 314 319 321 324 329 332 331 326 318 314 324 326 313 312 320 325 325 315 310 320 324 321 319 320 321 325 330 330 327 324
312 311 311 312 313 313 315 315 312 312 312 310 311 311 309 310 308 308 308 309 312 311 308 308 309 313 315 312 312 314 316 317 316 315 314 314 313 311 311 311 315 320 319 323 327 320 314 313 313 316 317 319 319 317 316 319 318 315 318 322 322 326 329 331 332 322 312 320 329 323 316 312 313 324 329 315 309 316 320 320 321 323 325 326 331 331 331 335
313 313 312 313 314 313 315 315 313 315 313 310 311 310 309 312 313 309 307 311 315 312 308 308 310 313 314 312 313 315 317 317 315 314 315 315 314 315 312 311 316 320 321 324 323 319 316 314 316 316 315 317 320 318 317 316 315 318 326 326 320 325 325 327 331 321 313 325 326 318 316 312 312 322 323 317 317 316 315 317 319 321 327 328 328 327 330 338
315 314 314 313 314 314 316 315 315 316 313 310 311 312 311 312 311 310 309 311 314 313 311 310 310 313 313 312 315 316 318 319 315 314 317 317 315 315 314 315 318 318 316 320 321 319 319 318 317 315 314 317 323 324 318 319 322 321 324 323 319 321 319 320 328 321 318 323 317 315 316 312 314 319 315 317 319 316 316 318 318 319 326 333 331 328 331 337
316 315 314 314 315 316 316 316 317 316 313 309 310 315 317 313 309 311 312 311 311 312 313 313 313 313 313 313 315 316 317 317 315 314 316 318 316 314 315 318 320 320 319 321 322 319 321 323 319 316 316 316 319 322 319 321 322 318 319 323 320 320 316 319 323 316 316 319 313 313 316 315 318 316 313 317 312 312 316 318 319 320 323 330 329 326 331 336
316 316 316 316 316 316 317 318 317 314 311 309 309 313 316 313 311 312 312 312 313 313 314 315 313 312 312 314 315 315 316 315 314 315 315 316 316 315 316 315 316 324 325 321 321 320 320 323 321 319 319 317 316 319 324 324 320 317 318 317 318 324 323 322 322 319 320 322 316 311 314 323 322 311 312 316 312 315 318 317 318 318 317 318 317 322 329 335
316 316 316 316 316 317 317 317 315 312 310 309 308 311 311 309 313 313 310 313 317 316 314 313 312 312 313 313 313 314 317 316 314 315 316 316 316 315 315 312 314 323 324 317 317 318 317 318 320 318 316 317 317 317 322 323 319 317 315 312 314 322 325 319 315 319 319 318 318 314 317 327 320 311 313 312 312 317 317 317 320 317 314 313 317 324 326 330
314 315 316 316 316 317 316 315 313 311 311 310 308 310 309 310 316 315 312 316 318 314 312 312 313 314 312 312 314 313 315 318 316 315 315 316 316 315 314 313 314 316 317 317 319 318 316 316 317 317 315 315 317 316 318 319 318 317 314 317 319 317 324 320 310 311 312 312 317 316 319 324 316 314 318 313 313 316 313 317 320 317 314 313 318 325 327 331
313 313 314 314 316 317 316 316 314 312 313 310 307 309 309 311 316 318 316 316 315 312 312 313 313 314 313 312 315 314 314 318 317 315 316 315 316 316 314 315 314 312 313 317 319 318 320 319 315 316 316 313 312 316 318 316 317 319 319 321 316 311 320 322 314 318 317 315 319 316 316 320 316 318 322 315 312 315 316 317 319 318 315 315 319 322 325 329
310 310 311 313 315 316 316 317 315 314 316 312 307 311 315 312 313 320 321 313 311 313 314 316 313 313 313 312 314 313 314 317 316 316 316 314 316 317 315 314 314 312 312 313 313 315 320 320 315 315 318 315 314 317 319 315 313 319 322 318 316 317 320 317 314 320 319 315 322 320 314 313 313 319 322 315 313 319 319 315 316 316 313 316 320 320 321 324
309 310 311 312 313 315 316 315 314 315 315 312 307 310 317 317 315 321 321 314 314 315 314 317 316 313 312 312 313 313 313 316 315 315 316 314 315 316 313 314 314 312 311 311 312 313 316 317 315 313 314 316 317 316 319 319 313 313 314 311 317 324 324 318 315 317 317 315 319 321 319 317 317 318 318 313 317 323 319 315 317 315 313 320 321 318 319 323
308 311 311 309 311 314 314 313 314 316 314 311 310 309 314 317 315 316 316 314 317 316 314 320 318 313 314 313 313 313 313 315 314 315 315 313 313 314 312 312 314 313 311 311 313 315 314 312 313 314 312 315 319 318 317 319 316 314 314 314 317 318 317 318 316 315 319 321 320 319 317 319 322 318 316 315 317 319 318 316 318 315 315 322 322 319 320 323
307 310 310 308 310 312 313 313 314 315 314 313 314 314 316 316 314 315 315 315 317 315 317 323 319 315 316 314 313 313 314 316 314 314 315 312 312 314 312 312 314 313 312 310 312 315 314 312 317 319 316 316 320 318 315 317 316 315 315 316 317 316 316 318 316 314 315 317 321 319 313 318 324 317 313 315 312 311 312 314 318 319 317 320 320 320 323 325
307 310 309 309 311 312 312 313 311 311 313 314 314 315 316 316 316 316 316 316 318 316 316 321 323 322 319 314 315 315 314 316 315 315 316 314 313 314 313 313 314 312 312 312 312 315 317 318 323 323 320 319 318 314 313 316 317 315 315 317 316 315 317 317 317 318 314 312 316 317 315 319 321 313 311 312 309 309 314 317 320 320 318 318 318 319 322 325
308 310 309 309 311 311 310 311 309 308 311 312 312 312 313 316 317 316 315 315 317 317 317 320 322 320 319 317 316 316 314 314 314 315 317 314 312 316 318 316 315 312 312 313 312 313 316 318 319 320 321 323 321 317 314 314 314 315 317 319 317 316 319 320 321 320 318 317 316 315 316 317 318 318 317 314 312 314 318 319 319 317 316 317 318 319 322 323
308 309 308 308 309 309 309 310 310 309 309 310 312 313 313 315 316 316 317 318 318 318 319 320 317 315 319 320 318 316 314 314 314 314 317 315 311 317 321 319 314 312 312 314 313 313 314 316 317 317 319 322 322 322 319 315 315 318 321 319 317 318 320 319 317 315 316 321 320 317 317 316 319 322 318 314 317 319 317 319 319 317 316 318 321 324 325 324
305 305 305 306 307 308 308 309 309 309 309 309 311 313 313 314 315 316 318 318 319 319 318 318 317 318 321 321 320 319 315 316 317 315 316 316 313 315 320 319 315 311 315 318 316 312 315 318 318 316 316 316 317 318 319 318 317 318 322 321 316 317 318 316 317 316 316 320 319 317 315 314 318 319 314 314 320 319 315 316 316 316 317 320 325 329 327 323
304 304 304 306 308 308 309 308 307 308 309 310 311 312 313 314 315 315 316 316 318 319 318 317 318 320 321 320 321 320 315 317 319 317 317 318 316 316 316 317 316 315 318 321 316 317 322 320 315 314 314 313 313 315 320 322 319 317 320 320 317 316 316 316 319 318 316 318 318 315 314 314 317 318 315 317 319 317 317 317 316 317 321 325 328 328 323 318
305 305 305 307 309 309 309 308 307 307 308 310 312 311 312 314 314 315 315 314 317 318 318 318 318 319 320 320 322 321 318 318 318 317 319 319 318 316 313 314 317 316 318 318 314 318 323 319 314 314 314 312 313 318 321 321 320 318 318 318 317 316 316 316 317 316 316 318 317 314 314 314 314 317 319 320 319 319 320 320 317 318 323 326 324 319 316 315
303 304 304 304 307 309 310 309 308 307 309 310 311 311 311 312 314 315 314 314 316 317 318 319 318 319 320 320 321 321 319 319 318 318 320 320 319 318 315 315 315 315 317 316 314 318 320 318 316 315 314 313 315 320 321 319 318 319 317 317 317 316 316 316 316 315 316 317 315 315 317 317 313 315 318 318 317 318 318 317 315 315 319 321 318 315 316 320
300 302 302 302 304 306 307 309 309 308 309 310 310 310 311 312 313 314 314 314 316 316 317 319 318 318 320 319 321 322 320 319 320 319 319 320 319 319 319 319 316 315 318 316 314 317 319 321 321 316 313 315 317 320 320 318 318 318 317 317 316 314 315 315 315 315 315 316 316 315 318 317 314 315 317 316 314 314 315 317 317 318 320 320 319 319 321 323
300 302 302 302 304 304 306 309 309 309 309 310 310 310 310 311 312 313 314 314 315 315 316 317 316 317 318 318 320 321 318 319 321 321 319 319 319 319 321 321 317 316 319 319 316 315 315 320 323 317 314 316 317 318 318 316 317 317 317 317 315 314 315 314 314 315 315 315 315 315 317 316 313 315 318 317 315 314 314 318 321 321 321 319 319 322 323 320
299 300 301 303 304 304 305 307 309 309 309 309 310 310 310 310 311 312 313 313 314 315 315 315 315 316 316 316 318 319 317 319 320 320 318 319 321 320 319 318 318 318 319 319 318 317 314 317 321 318 317 319 319 318 317 315 315 317 318 318 316 314 314 313 314 315 314 315 316 316 316 315 313 316 316 315 317 317 317 320 322 321 320 319 319 320 317 313
298 299 300 303 304 304 304 305 308 310 309 309 309 309 309 310 311 311 312 313 313 314 315 314 314 315 315 315 316 316 317 318 317 316 317 318 319 319 317 317 318 318 319 318 318 318 317 320 323 320 319 320 317 316 318 318 317 318 317 316 315 314 313 313 314 314 314 315 316 316 315 313 316 320 317 316 320 320 321 321 320 320 321 317 315 313 310 310
Wind_Speed
19 17 16 16 14 14 14 12 12 12 11 11 9 9 10 12 13 14 16 18 17 16 15 13 14 13 13 12 10 8 7 6 6 9 9 7 11 9 7 12 8 5 6 6 7 6 3 2 1 2 3 2 2 1 1 2 2 4 3 3 1 3 3 5 7 7 4 3 5 5 6 8 5 2 1 2 5 3 2 3 2 3 2 2 5 4 11 28
19 17 16 16 15 14 14 12 12 12 11 10 9 8 9 11 12 13 15 17 16 15 13 12 13 13 12 11 9 7 6 6 5 8 12 9 9 9 7 9 8 6 7 6 7 7 5 2 2 4 4 1 2 2 1 1 3 4 3 3 3 5 4 5 6 6 3 2 4 4 3 5 6 4 2 2 0 1 3 2 5 4 3 4 3 7 20 27
18 18 17 16 16 15 14 13 12 12 12 11 9 9 10 10 11 13 13 16 16 13 11 11 12 12 12 10 8 7 6 5 3 7 12 11 10 9 7 8 8 7 7 6 7 7 7 5 4 5 4 2 1 2 2 1 1 2 4 3 5 6 4 4 5 6 4 3 5 3 1 1 3 3 2 4 3 1 5 5 1 3 6 1 2 11 20 23
18 19 19 17 16 16 14 13 13 12 12 11 9 10 11 10 11 11 11 14 15 11 10 10 11 12 11 10 7 8 6 2 3 5 10 12 11 8 7 8 8 8 7 6 7 7 7 6 5 4 4 1 3 2 2 1 1 2 4 4 6 4 2 4 6 6 5 5 6 4 3 1 2 2 2 6 6 3 7 7 7 9 8 6 4 9 17 19
19 19 19 18 17 16 14 14 14 12 11 9 8 9 10 10 11 11 11 13 13 10 9 9 11 12 11 9 8 9 5 1 3 5 11 14 11 8 8 8 8 8 9 8 8 8 7 6 6 5 4 1 2 3 1 2 2 2 1 5 5 4 2 3 5 4 2 5 5 5 5 3 2 1 3 9 7 6 7 8 11 10 10 12 11 12 14 15
21 20 19 19 17 15 15 14 13 12 10 8 8 9 10 10 11 10 10 12 12 10 8 9 10 11 10 9 8 8 5 1 2 4 11 15 12 10 9 8 9 9 10 9 8 8 5 5 5 3 3 2 1 2 2 2 2 3 2 2 4 4 2 1 1 2 2 7 6 5 4 2 3 1 2 8 8 7 6 6 9 8 10 15 14 14 12 12
22 19 19 19 18 16 16 14 12 11 9 8 8 8 9 9 11 10 10 12 12 9 9 9 9 10 10 8 7 3 1 2 1 5 11 14 12 11 10 8 8 9 10 11 8 6 5 5 4 4 4 2 3 3 1 2 5 4 2 1 2 4 2 2 2 1 4 7 5 4 3 3 5 3 1 5 10 8 5 5 4 8 12 14 13 12 13 14
21 19 18 18 19 17 16 15 13 11 9 8 7 6 7 9 11 10 9 11 10 10 9 9 9 10 10 9 6 2 1 3 2 7 11 13 13 11 10 8 8 9 10 11 10 8 6 6 5 4 4 2 4 3 1 3 5 3 3 2 2 1 2 3 3 5 4 3 1 3 3 2 5 3 1 7 11 8 4 3 3 9 11 11 11 12 12 13
21 19 17 18 20 19 16 15 13 11 9 8 7 6 6 8 10 9 9 10 9 10 10 10 10 10 11 7 4 3 3 3 4 9 12 13 12 11 10 8 9 8 9 9 9 10 7 5 5 5 4 4 5 4 2 3 1 3 4 3 4 1 3 2 3 4 3 1 2 4 1 5 2 1 3 8 9 4 2 6 4 8 9 9 10 11 12 11
22 19 17 17 19 19 18 15 13 11 10 8 7 6 6 7 9 9 9 9 8 9 10 12 11 12 12 5 5 3 3 2 6 11 12 12 11 12 10 7 8 8 8 7 7 10 6 6 7 5 5 2 3 2 2 4 3 4 6 5 5 2 3 2 2 2 2 1 2 4 3 6 3 2 4 6 5 1 6 6 3 7 8 10 9 10 12 13
21 18 16 16 18 19 18 15 12 11 10 8 7 6 6 6 8 8 8 8 8 9 10 13 12 13 10 4 5 4 3 4 8 11 12 12 11 11 8 7 8 8 8 6 7 8 5 9 10 6 2 2 3 2 1 3 3 5 7 5 6 6 1 3 3 0 2 1 1 5 2 5 4 2 6 3 5 1 7 5 4 6 7 8 8 8 10 13
20 18 16 15 16 17 16 13 12 12 9 8 8 6 6 6 7 7 7 7 8 9 11 13 13 13 7 3 3 4 2 4 8 11 13 12 11 9 7 7 7 7 8 6 8 7 5 10 11 6 1 3 5 2 2 2 4 4 6 4 6 8 3 3 1 1 1 2 1 4 1 5 3 5 6 1 5 3 5 5 5 6 7 6 7 6 7 12
20 17 16 15 15 15 15 12 11 11 10 9 9 7 7 6 5 6 7 7 8 10 11 12 13 12 5 1 3 4 3 5 8 12 12 11 10 9 7 7 7 6 6 6 8 8 6 9 9 6 3 5 3 2 3 4 4 2 4 4 1 7 4 4 2 0 1 2 1 3 1 6 8 10 8 4 4 3 3 6 6 6 6 5 6 6 7 11
20 18 16 15 14 13 13 12 10 10 9 8 9 7 6 5 5 6 8 8 9 10 10 12 12 9 3 1 3 4 5 6 9 12 12 11 9 8 7 6 6 6 4 5 8 7 5 8 9 6 3 4 3 2 5 6 4 2 2 3 2 1 4 6 2 2 4 1 1 5 2 6 8 10 9 7 2 5 6 7 7 6 6 6 6 6 7 10
21 19 17 15 14 13 12 12 10 9 8 8 8 7 5 4 5 6 8 9 8 10 10 11 11 7 2 3 2 3 6 6 8 12 12 12 10 6 6 6 5 5 5 5 8 8 7 9 9 5 1 2 4 6 4 4 4 3 2 2 3 2 5 8 2 4 4 1 4 6 2 6 8 10 8 5 2 7 7 7 6 7 7 7 6 7 7 9
21 19 18 16 14 12 12 11 10 10 9 8 8 7 5 5 6 6 8 9 8 9 9 9 9 6 2 1 0 3 5 5 8 12 11 12 9 5 7 8 6 7 7 6 8 8 8 7 5 3 3 3 5 6 4 3 3 4 3 2 1 3 3 5 2 1 1 1 3 3 3 4 5 7 7 3 5 5 3 6 6 6 8 7 7 7 7 9
22 20 18 16 14 12 11 11 11 10 9 9 9 7 6 6 6 6 8 10 9 8 8 8 8 4 1 1 1 2 4 6 9 11 11 10 8 7 9 6 4 6 7 6 7 5 5 5 2 1 3 4 3 6 4 0 3 3 2 2 3 3 3 2 3 3 3 2 1 2 2 6 7 8 8 5 4 4 4 7 7 6 7 7 6 7 7 9
21 19 18 16 13 12 11 11 11 11 10 10 10 10 9 8 8 7 9 12 11 8 5 4 6 2 2 3 3 3 4 8 11 10 9 9 8 9 8 4 4 6 6 5 3 3 3 4 3 2 3 3 2 5 5 5 5 5 3 3 2 2 3 3 3 2 2 2 2 0 2 9 11 10 11 9 3 4 8 7 7 7 7 8 7 7 8 8
22 20 19 16 13 12 11 12 12 11 12 11 14 15 13 11 9 7 6 8 6 4 3 4 5 3 4 5 3 2 6 10 11 9 8 8 8 8 5 4 5 6 5 3 1 1 2 3 4 3 2 3 5 6 7 7 8 9 6 5 5 3 4 5 4 4 1 2 3 4 5 8 11 10 11 11 3 2 8 7 7 8 8 9 7 8 9 9
22 20 19 16 14 13 12 14 13 13 13 15 20 17 10 7 6 3 1 2 3 2 2 5 6 3 1 1 4 8 9 9 6 5 7 8 9 9 5 4 5 5 3 4 3 1 3 4 3 5 7 8 8 7 5 5 6 7 6 5 4 4 2 4 3 5 1 3 4 4 4 8 10 11 12 10 5 4 9 9 9 9 8 9 8 9 11 11
22 21 19 16 14 13 14 15 14 14 14 19 22 11 3 5 4 4 3 3 5 2 2 5 5 3 1 3 8 9 7 4 2 2 7 7 8 8 1 3 5 3 1 3 3 2 4 5 7 7 9 7 6 7 7 6 6 6 6 5 2 2 2 3 2 4 3 1 3 2 3 9 10 11 12 9 7 8 10 10 11 11 10 9 8 12 13 11
22 21 19 17 14 14 16 16 15 15 14 17 16 4 3 3 2 8 8 1 4 1 2 3 4 3 1 4 8 5 4 4 2 0 4 5 5 5 1 3 6 4 1 2 4 3 3 4 9 7 6 6 6 5 7 7 6 5 4 5 3 2 2 3 3 4 4 1 4 5 5 9 10 11 12 11 9 9 9 9 10 10 10 10 10 12 12 11
22 21 19 16 15 17 17 17 16 15 15 15 13 5 2 2 3 9 7 4 2 1 1 2 3 3 2 2 6 3 4 4 5 4 4 5 3 3 4 5 5 5 2 4 6 5 3 6 7 6 7 8 6 3 7 7 4 4 4 5 2 2 1 1 3 3 4 2 2 4 5 9 7 6 10 10 7 7 7 8 9 8 10 12 11 10 10 11
21 20 17 16 17 19 18 17 15 14 15 15 14 10 2 1 7 8 3 3 2 1 1 1 2 4 3 3 6 5 3 2 5 5 5 6 4 3 5 5 5 5 4 6 8 8 5 5 3 8 6 8 7 3 6 6 2 1 3 5 3 3 4 2 2 2 3 4 3 3 5 7 5 5 7 6 4 6 5 5 8 9 10 11 10 9 9 9
21 19 17 19 20 19 19 16 13 14 14 12 14 11 4 2 6 5 3 3 1 1 1 1 0 4 5 4 5 5 3 1 1 3 5 6 6 4 3 3 4 4 4 5 8 6 5 3 5 9 5 6 8 4 5 7 3 2 3 6 6 6 6 2 2 4 4 4 4 4 3 6 6 5 7 5 6 8 5 4 9 9 7 7 9 10 9 7
21 20 20 23 22 22 19 10 11 15 11 9 11 11 6 4 5 5 4 4 1 1 1 3 2 5 7 4 3 4 3 1 1 1 4 5 3 3 3 1 2 3 5 5 4 3 2 1 4 8 6 6 7 3 5 6 6 2 4 5 6 7 8 5 3 4 1 2 3 4 3 5 7 5 8 6 7 10 9 8 10 9 7 7 8 9 7 7
22 22 24 24 24 25 14 4 12 15 7 7 11 10 7 5 5 4 4 4 3 3 4 1 0 6 9 3 4 6 3 4 2 3 2 3 0 3 4 4 2 2 3 4 2 2 2 3 5 6 7 6 5 3 5 7 8 3 3 6 8 7 8 6 5 4 2 2 4 5 4 2 6 6 7 5 6 10 11 11 11 8 8 8 7 8 8 8
23 24 27 25 25 24 9 7 19 14 4 8 12 11 8 7 6 3 4 2 2 2 4 1 1 6 4 1 4 5 2 3 5 2 2 3 1 3 3 5 5 5 2 4 4 3 2 4 4 6 6 4 4 4 6 8 6 4 4 7 6 7 7 5 6 4 1 2 4 5 2 2 6 7 6 4 4 8 9 9 10 9 9 8 7 7 7 7
23 25 26 25 26 20 5 8 18 11 6 11 13 12 9 8 6 3 3 3 1 2 1 2 3 3 2 3 4 3 1 2 2 3 2 4 1 3 3 5 6 7 3 4 5 3 1 4 6 6 6 5 3 2 4 5 3 4 6 7 6 6 6 5 5 4 3 2 4 6 1 2 5 7 5 2 2 5 7 7 7 8 8 7 6 6 4 4
24 24 25 24 23 18 7 7 13 10 7 12 14 13 10 6 4 4 3 4 2 1 1 2 3 2 6 7 1 2 2 2 1 1 2 1 2 5 2 2 6 7 4 6 3 1 2 2 2 4 3 6 4 3 1 2 5 8 7 7 7 6 5 4 3 4 3 3 6 6 2 1 3 6 4 2 2 4 3 5 7 7 8 7 5 5 4 5
24 23 24 23 20 17 8 5 12 11 8 13 15 11 7 4 2 5 6 3 3 2 1 2 1 4 11 12 4 1 3 2 0 4 3 1 2 3 2 2 4 5 3 3 2 4 4 3 0 1 1 4 6 5 4 4 5 7 5 5 4 4 4 4 4 4 1 5 6 5 2 2 4 5 4 4 5 5 4 3 7 8 8 7 6 5 5 5
24 23 24 22 18 16 8 5 13 12 10 16 15 6 5 4 2 5 3 1 2 3 4 4 3 6 11 9 5 3 4 2 1 4 5 4 4 3 4 5 4 3 1 3 1 2 2 1 2 2 1 4 6 5 4 5 5 5 5 6 4 2 3 2 3 1 3 6 4 3 1 3 6 7 8 9 8 6 7 7 6 7 7 8 6 6 6 5
24 24 25 22 16 14 8 6 12 11 12 17 10 4 6 4 7 7 3 2 2 2 4 4 2 6 10 7 4 4 3 2 3 2 2 4 5 5 3 3 6 5 3 4 4 2 1 4 2 1 1 2 6 6 4 1 0 4 5 5 4 3 1 2 4 2 3 4 3 3 2 3 4 5 9 12 7 4 6 8 7 7 7 8 7 6 6 6
21 24 26 23 17 13 8 7 9 11 14 14 6 4 5 6 6 5 4 4 1 2 2 4 6 8 8 5 5 5 3 1 4 4 3 4 5 6 5 5 4 5 4 4 3 5 4 4 3 4 2 3 5 4 6 6 3 2 4 5 6 5 5 4 4 3 4 3 3 4 2 3 2 2 7 9 6 5 6 6 7 7 7 7 6 6 6 6
15 21 25 23 17 13 10 7 9 13 14 8 4 5 8 9 4 4 6 5 1 2 3 3 8 9 4 2 1 5 3 2 4 4 5 5 5 7 7 6 5 4 6 6 3 3 4 4 4 2 2 5 5 2 4 7 2 1 2 5 3 5 5 3 3 5 3 1 3 2 3 4 3 5 8 5 5 7 5 5 6 5 5 5 4 6 6 6
12 16 19 18 16 14 12 10 10 13 11 6 5 7 8 6 3 4 5 4 4 6 7 4 4 6 5 2 2 6 1 3 4 4 4 4 3 6 7 5 6 6 6 6 3 2 3 3 4 3 2 3 2 2 2 3 3 2 2 3 5 4 7 5 1 1 3 1 3 2 4 5 3 6 9 5 6 7 4 6 7 3 3 4 4 5 5 5
11 10 9 11 14 15 14 11 10 10 7 5 7 9 3 2 4 4 3 4 5 8 9 5 2 4 6 4 5 7 3 3 4 4 4 3 2 5 6 4 5 9 7 4 2 3 5 1 4 2 1 1 1 2 4 3 3 5 3 5 4 2 5 4 2 2 3 2 5 1 4 5 1 3 7 6 4 8 7 7 7 4 3 3 4 5 5 6
8 6 2 5 12 15 13 12 11 8 5 4 10 9 2 1 3 2 2 3 6 6 6 5 3 3 6 6 6 8 6 4 5 4 4 4 4 6 9 5 4 9 8 3 2 2 5 3 4 2 2 3 4 4 2 4 3 5 4 3 4 3 1 2 2 2 1 2 5 4 4 4 4 5 5 1 4 7 9 8 6 4 2 4 5 6 6 5
6 4 1 3 8 13 14 13 9 6 3 6 11 8 2 1 2 2 2 2 5 5 5 5 2 2 5 6 6 7 7 6 8 6 4 5 5 5 9 6 3 8 9 5 3 3 4 4 2 2 1 2 3 2 4 1 3 3 3 3 3 3 4 3 3 4 3 3 3 4 5 3 6 6 5 7 8 8 7 5 5 5 1 2 0 1 3 3
4 3 1 2 4 9 15 13 7 5 4 6 7 4 1 1 1 2 2 1 2 2 4 5 3 4 4 3 3 5 5 5 8 6 4 5 5 4 7 7 4 7 7 5 3 3 3 3 3 2 3 1 2 3 7 7 4 3 3 3 2 1 2 2 1 3 4 4 2 3 5 5 5 4 8 10 9 7 6 4 3 2 4 4 5 3 1 3
2 2 2 3 4 8 13 9 3 3 4 2 2 2 1 1 2 1 3 1 2 1 2 4 4 5 5 4 3 5 4 4 6 5 3 6 6 4 5 7 7 7 6 3 3 4 3 3 4 2 0 4 4 3 3 6 7 6 6 7 7 4 4 3 2 1 2 3 4 3 5 7 5 4 7 7 6 4 5 7 6 5 6 5 5 4 3 2
2 2 2 3 7 7 5 4 1 2 2 2 2 2 1 1 2 1 1 2 2 1 2 3 3 3 5 4 4 5 6 4 5 6 4 6 7 5 3 4 8 10 8 5 4 3 3 4 4 2 3 6 5 4 1 2 2 3 3 5 6 5 5 6 5 4 1 1 2 3 3 7 5 3 4 4 3 3 6 8 8 6 6 4 4 4 4 3
2 2 2 2 9 8 4 2 2 2 1 1 1 1 1 1 2 2 1 1 2 2 2 1 2 2 3 3 4 6 7 5 6 6 4 4 5 4 3 5 9 10 8 5 4 2 2 4 4 1 3 4 5 4 3 3 3 1 2 3 5 4 4 5 5 4 4 4 3 3 3 7 6 3 2 3 3 3 4 6 7 5 3 3 5 4 4 5
1 1 2 2 7 11 4 1 2 2 2 1 1 1 1 1 2 3 2 1 1 2 2 1 1 2 2 3 4 7 8 4 5 6 3 3 4 1 1 6 8 9 6 4 5 5 3 3 4 3 1 3 4 3 3 2 2 3 3 3 5 5 6 4 2 3 2 6 7 5 6 7 5 4 3 2 1 5 4 4 5 2 2 3 5 5 5 4
1 2 1 3 5 9 3 1 3 3 3 3 2 2 2 0 1 3 3 2 1 3 3 1 1 2 3 3 3 3 5 3 3 5 3 2 2 2 3 1 6 7 3 1 4 6 5 4 5 6 6 6 6 5 4 4 3 2 2 4 6 7 9 5 2 3 5 6 7 7 8 5 4 5 3 3 4 5 5 5 3 2 4 5 5 6 5 6
1 2 1 1 2 3 1 2 4 3 4 5 2 2 4 2 1 0 2 2 1 2 2 1 2 3 2 3 4 3 4 1 2 3 4 4 3 1 3 2 2 3 1 2 5 6 4 2 5 8 10 11 10 6 5 8 7 6 8 9 8 9 11 8 4 5 8 3 4 10 10 5 5 4 2 2 5 6 6 6 4 4 5 5 5 5 5 5
1 1 2 2 1 3 3 3 5 3 4 5 3 3 6 5 1 0 1 2 2 2 2 1 1 3 3 5 5 3 3 2 3 2 4 3 2 1 2 3 4 2 2 3 3 4 4 3 7 10 11 12 8 6 7 10 11 14 14 12 11 11 11 10 9 12 8 4 6 12 7 7 11 6 5 7 5 5 7 7 5 5 5 5 6 5 5 4
0 0 1 0 0 3 4 5 7 6 4 5 3 3 6 6 4 3 2 1 1 2 2 1 3 5 6 7 5 4 4 3 1 2 2 2 2 1 2 2 2 2 2 2 0 3 5 5 7 8 10 12 6 5 8 10 10 12 13 14 15 13 13 15 17 17 10 7 14 12 10 12 15 8 9 10 8 7 7 5 4 5 5 6 5 5 6 6
1 1 1 2 1 1 2 3 9 8 7 8 5 4 7 9 8 5 2 3 1 2 3 4 5 5 6 5 5 5 6 5 3 4 3 2 3 2 2 1 0 2 3 4 1 2 4 4 4 7 9 11 6 4 7 10 8 8 10 13 15 16 18 19 20 20 15 12 15 11 8 13 12 7 10 11 7 6 4 1 3 6 6 7 7 7 7 7
1 0 1 2 2 1 2 2 9 8 6 7 6 5 7 9 11 7 3 4 4 3 4 7 6 5 5 4 3 3 6 6 5 5 5 5 3 2 2 3 2 2 3 3 2 1 3 3 2 6 5 8 4 5 6 8 9 9 9 10 12 14 17 19 18 16 12 11 14 12 10 13 7 7 9 7 3 2 2 4 6 7 5 5 5 6 6 5
2 1 1 2 1 0 1 0 5 6 5 6 6 5 8 11 12 9 4 4 6 5 6 8 6 4 3 2 2 5 5 5 6 5 6 6 4 3 2 2 3 2 2 2 2 2 3 2 2 5 4 6 3 6 5 4 4 5 8 11 14 15 15 15 13 11 11 12 14 11 12 13 6 7 6 3 4 4 6 7 7 6 4 3 3 4 3 2
3 3 2 3 1 1 1 1 2 5 5 6 6 4 4 7 8 8 5 4 6 7 8 8 7 4 3 5 9 9 5 7 7 5 4 4 4 3 3 3 4 4 2 2 2 1 4 4 1 3 5 4 2 7 7 6 4 5 10 15 18 16 13 10 8 10 13 14 11 10 12 10 4 7 6 4 6 7 7 6 5 5 4 4 4 3 2 1
Wind_Direction
175 176 177 181 182 183 188 188 189 193 197 200 198 192 190 192 196 197 198 198 199 198 198 199 196 190 187 187 190 195 199 200 200 188 197 226 218 212 194 194 202 189 174 179 182 168 130 77 163 171 138 113 8 298 358 9 75 64 85 103 162 185 203 183 179 196 172 211 221 216 194 145 156 208 143 55 49 66 62 22 338 335 354 300 289 303 159 164
175 178 179 185 184 181 183 186 188 193 196 198 197 191 189 194 200 199 199 201 201 201 201 200 194 190 188 187 188 192 193 193 201 208 216 222 206 203 192 190 197 186 174 180 188 169 138 123 150 110 87 83 340 349 45 343 78 86 111 118 209 203 206 195 181 195 177 195 207 209 207 159 166 165 126 154 313 65 129 312 345 338 311 358 14 134 151 162
176 179 182 183 182 181 183 186 189 192 195 196 197 193 193 199 201 199 199 201 202 203 204 198 192 191 190 188 185 187 182 176 215 233 224 210 190 195 193 187 186 180 179 179 184 172 153 149 137 114 73 68 319 3 82 26 82 140 118 119 236 214 218 231 195 208 216 170 164 197 223 152 180 160 141 164 163 159 190 214 291 258 248 327 89 140 150 160
175 180 185 181 180 184 184 186 190 192 198 200 198 196 198 203 202 200 198 198 201 202 202 192 190 194 190 189 183 181 173 149 248 218 200 193 185 192 192 184 179 177 180 169 165 165 148 126 111 101 81 65 325 358 137 269 201 142 120 168 225 194 200 232 196 228 241 171 159 160 120 116 230 186 151 142 136 259 243 221 198 206 202 169 178 163 157 163
176 181 183 180 181 184 183 187 192 192 201 204 199 201 201 204 205 202 197 197 199 197 195 188 191 194 188 188 186 188 172 91 249 189 175 184 185 192 191 184 183 179 173 162 158 152 137 111 86 73 74 112 337 25 199 271 120 120 182 186 193 157 176 231 185 225 215 135 120 123 150 179 174 143 155 150 161 230 233 220 209 199 177 166 173 172 167 171
180 185 184 183 182 182 182 188 194 191 200 206 200 201 198 200 202 202 198 194 196 191 189 187 189 190 188 187 186 194 184 160 255 162 169 180 182 190 188 188 184 174 169 165 160 145 127 83 79 102 82 89 166 154 213 302 85 132 259 201 197 188 193 294 126 241 154 123 137 161 181 148 118 246 189 174 200 223 225 229 216 195 168 162 160 165 174 181
186 190 190 187 182 181 183 186 192 190 195 199 197 196 195 200 200 204 200 190 190 185 185 187 184 186 184 176 171 178 202 246 266 154 168 172 178 186 182 187 174 166 170 164 156 141 122 95 113 147 98 80 185 184 199 11 48 102 172 207 195 191 200 328 38 64 114 135 190 185 131 132 165 194 91 212 234 239 258 290 215 163 150 151 154 171 184 188
189 191 191 184 178 181 185 185 188 188 189 191 194 194 198 204 200 204 202 192 186 178 182 184 179 181 177 168 153 91 302 261 188 160 167 167 175 180 177 178 163 164 171 172 170 154 134 129 155 149 108 200 182 159 150 67 36 93 170 197 142 150 299 334 39 57 80 124 206 117 124 231 197 173 102 240 249 252 255 4 101 138 140 155 168 182 189 194
190 191 188 180 178 182 185 185 186 188 189 191 200 205 202 202 202 206 202 196 184 175 177 178 179 178 176 170 118 112 228 238 171 166 167 169 175 174 174 171 163 167 166 179 180 159 158 161 179 170 151 205 162 150 163 113 246 185 152 154 118 39 330 1 44 41 46 52 55 106 311 305 238 205 273 249 254 252 132 75 100 134 146 177 182 187 191 195
191 191 190 184 183 186 187 186 186 189 192 197 205 210 207 199 200 206 202 196 183 174 172 175 179 174 178 170 99 153 230 188 173 174 170 173 176 173 173 168 168 175 166 167 166 157 171 182 176 155 133 147 138 133 155 149 195 157 114 104 85 6 318 48 89 13 15 31 66 147 244 305 319 312 259 264 299 245 121 96 130 152 168 192 192 196 197 201
191 191 189 188 188 191 193 190 188 189 191 199 204 209 210 200 200 206 204 194 178 171 172 174 175 175 181 146 120 191 226 163 181 178 173 177 179 177 174 173 176 184 173 157 173 173 166 167 151 118 123 169 132 76 247 168 117 120 121 100 12 352 339 42 90 327 1 91 112 135 187 309 350 305 224 238 342 78 145 142 175 186 202 205 203 206 201 212
191 190 188 187 189 194 199 198 192 190 195 200 199 206 206 200 204 204 200 191 174 167 173 173 173 176 169 96 152 212 188 166 185 180 179 180 180 180 175 180 183 189 183 166 189 183 144 157 137 104 193 155 127 110 196 120 84 114 111 113 335 359 11 339 56 283 353 132 194 115 54 303 245 236 229 198 9 51 140 187 210 216 230 226 221 222 214 225
190 189 187 187 188 193 201 202 198 200 204 200 198 202 199 195 206 197 186 188 175 165 170 171 172 171 152 103 220 214 193 184 186 183 182 181 180 183 183 185 178 181 190 179 185 172 143 160 139 117 131 110 129 184 116 64 66 118 71 104 359 9 349 315 31 325 110 144 244 129 253 278 249 251 259 293 350 77 156 225 232 235 244 247 238 234 236 236
190 189 188 187 187 192 199 196 194 200 200 198 197 193 189 191 202 189 175 183 176 162 166 168 167 159 141 224 227 208 211 199 188 185 182 183 180 176 180 181 175 178 184 170 170 161 144 149 125 102 96 98 133 109 55 23 32 91 62 61 52 82 266 302 341 144 143 170 74 117 197 269 269 274 275 296 304 164 208 237 237 248 251 252 245 237 245 242
190 190 189 187 186 191 194 189 188 192 189 188 184 178 189 198 195 180 169 175 171 159 157 160 162 144 93 282 266 196 202 197 189 185 183 184 175 170 176 165 159 159 150 146 150 141 131 130 106 86 88 38 83 90 45 12 19 41 105 320 352 161 258 309 317 151 152 254 58 103 211 269 275 277 276 317 55 163 208 244 249 255 251 247 246 239 246 251
190 190 191 188 187 191 191 186 186 188 183 175 169 173 187 183 174 166 164 163 157 153 144 152 166 138 104 250 278 165 188 191 188 184 182 181 177 173 159 144 132 134 130 126 131 121 105 100 75 82 115 67 86 100 65 34 355 359 106 186 254 169 266 316 321 279 142 174 24 76 212 260 290 280 275 334 61 118 207 265 268 254 253 251 246 242 242 255
191 192 192 188 188 192 194 191 183 181 178 168 160 162 160 149 152 154 150 144 137 134 126 149 166 133 82 155 123 195 191 182 183 179 177 180 183 168 147 131 112 121 113 109 121 98 59 54 53 78 67 72 106 100 87 327 266 302 55 140 217 184 201 290 287 306 46 113 287 8 231 249 275 285 285 298 36 31 307 279 273 260 260 256 250 254 249 249
192 194 193 190 190 195 199 192 179 177 174 160 146 139 132 123 126 130 134 130 117 102 93 134 148 138 246 205 185 206 176 165 169 168 167 170 171 162 148 128 116 112 89 77 82 56 30 27 68 104 41 59 130 112 141 210 200 190 179 158 207 202 194 242 256 249 48 75 222 5 275 263 269 280 286 284 322 329 282 270 272 267 261 259 255 254 252 250
193 195 194 190 190 197 196 181 175 175 169 152 136 127 116 104 98 102 131 133 118 112 134 174 157 160 218 209 184 130 132 147 154 158 155 152 153 147 125 103 105 101 100 97 51 48 80 52 69 120 138 170 192 171 176 198 175 170 175 148 154 171 222 240 252 262 156 116 230 221 233 264 272 278 281 283 314 301 276 284 278 267 262 261 258 253 255 252
194 196 195 189 190 199 189 175 175 171 166 151 138 126 113 112 93 87 189 214 206 191 196 190 166 144 179 190 134 119 122 128 137 155 151 152 149 132 84 54 66 64 109 150 143 96 94 118 169 184 189 196 195 175 148 151 141 137 131 111 138 167 243 255 264 302 37 142 253 233 241 267 269 273 270 276 313 298 271 274 266 262 262 260 257 260 257 250
196 196 195 192 196 198 182 174 171 166 169 160 147 133 147 161 126 156 189 272 249 268 286 197 147 112 95 125 143 138 119 94 50 127 151 159 148 142 99 32 100 88 238 162 134 50 79 148 209 211 195 182 160 147 115 98 90 97 129 122 110 172 225 255 248 313 358 149 266 3 319 271 260 266 268 268 280 263 246 246 252 255 256 260 260 260 260 261
196 197 193 193 197 189 176 172 166 168 180 171 158 150 238 202 121 155 153 157 242 321 29 164 98 67 62 129 159 152 79 90 93 225 172 149 131 161 177 75 134 163 249 128 108 68 82 203 227 211 166 115 100 119 99 87 87 83 110 125 132 198 244 285 287 326 9 57 274 345 334 279 261 259 261 254 248 248 242 235 241 247 252 256 250 252 261 271
195 194 191 194 190 176 170 168 166 176 185 181 175 176 234 254 151 153 138 96 199 321 46 151 113 110 80 130 183 156 86 135 167 221 204 148 131 171 137 112 141 145 147 159 142 133 155 245 233 171 139 117 98 94 97 86 78 88 105 126 164 247 158 256 293 330 8 64 269 318 306 281 281 278 269 261 252 263 266 251 245 240 241 247 248 251 255 259
190 189 190 187 173 165 166 165 168 185 193 196 196 184 152 175 168 161 116 78 154 231 251 229 149 157 145 150 178 153 114 148 164 190 192 153 142 149 144 140 130 131 174 172 148 153 195 254 163 123 129 129 120 120 126 122 78 48 137 138 159 203 174 191 311 342 358 22 23 352 316 291 314 330 291 292 314 288 283 290 272 249 240 252 267 265 252 251
184 184 182 172 163 160 160 161 177 192 193 206 209 194 162 158 185 178 90 79 169 291 292 250 185 189 169 129 157 160 127 119 181 193 183 157 144 134 149 140 126 165 191 143 135 163 220 255 128 121 107 105 120 153 174 152 138 293 226 175 174 174 165 170 21 49 33 356 348 17 1 293 310 320 278 300 338 305 303 308 273 263 264 264 269 266 257 257
184 183 175 167 162 157 154 164 196 187 179 208 210 189 177 177 189 186 94 60 256 255 168 177 148 181 174 137 150 139 104 231 288 84 138 152 149 108 134 133 78 169 178 139 135 172 211 5 98 130 124 105 113 151 203 155 126 218 234 173 152 132 129 139 113 81 83 263 315 42 104 265 301 289 264 304 338 305 298 295 282 285 289 263 253 265 267 261
184 181 173 168 161 158 155 168 178 169 167 213 199 176 180 181 175 174 79 44 268 192 142 178 353 168 173 170 152 132 155 217 118 73 103 139 226 47 122 179 112 145 172 128 136 228 162 84 69 103 106 109 123 159 201 147 124 207 224 130 123 119 129 140 114 100 198 242 330 12 114 237 292 263 266 320 330 300 296 295 296 298 289 276 260 260 260 257
178 176 172 169 165 162 153 141 159 163 185 188 178 175 175 163 159 133 86 105 243 137 140 219 108 145 153 91 107 113 201 199 124 177 339 88 137 40 101 193 160 146 143 126 181 258 134 147 161 127 101 129 177 206 186 132 110 228 190 121 121 122 127 122 99 95 24 9 318 314 119 195 272 276 302 334 299 294 299 295 301 307 302 298 285 269 261 264
168 170 169 167 167 168 160 152 163 175 193 168 167 175 160 146 145 86 88 187 183 81 127 144 124 133 113 100 84 61 38 47 120 215 357 81 104 45 118 191 140 123 65 99 171 239 50 190 190 138 128 180 198 224 179 131 103 181 139 99 76 74 77 74 89 99 44 13 254 255 206 195 266 288 311 356 252 270 283 289 296 306 309 308 304 302 301 305
166 164 166 164 169 181 193 186 182 179 178 170 168 167 147 131 129 120 192 216 136 93 25 129 158 160 139 138 98 14 85 48 23 95 41 80 27 29 102 150 99 107 39 38 99 252 313 271 195 118 148 184 147 96 127 129 128 134 111 75 56 34 34 45 52 75 56 307 254 246 253 188 265 282 267 204 205 221 248 307 312 322 338 341 334 335 352 5
176 168 169 169 175 185 178 187 191 176 171 172 162 155 132 88 89 161 203 216 114 106 76 141 184 139 152 159 162 152 103 48 190 132 125 146 56 50 124 122 78 83 47 36 32 322 349 24 283 260 154 135 101 73 33 25 91 108 92 85 78 2 11 26 2 38 115 258 261 262 272 175 222 263 250 234 253 233 201 274 304 319 334 332 339 3 6 356
180 173 171 173 180 183 172 177 183 172 168 165 153 133 105 96 200 199 203 188 152 185 170 172 201 166 162 155 135 150 128 91 178 149 145 151 152 173 171 170 155 105 150 188 171 336 5 49 291 312 231 143 110 84 41 8 27 75 94 95 89 358 7 352 314 348 217 247 271 281 251 207 232 246 253 257 259 241 215 219 257 288 298 298 322 359 353 338
181 174 173 179 183 183 176 167 175 176 167 159 144 67 82 140 210 205 196 222 200 180 144 134 142 153 151 141 145 160 120 132 185 148 135 139 161 204 238 196 154 125 182 181 131 134 281 307 306 54 290 196 139 127 131 203 70 119 133 124 123 128 106 265 270 283 258 257 285 286 247 252 269 257 250 251 242 223 223 223 235 250 264 279 308 335 327 317
181 179 181 186 187 189 188 164 170 174 161 153 128 79 126 185 207 165 168 216 244 46 83 110 113 132 146 148 180 173 112 170 181 135 123 126 150 201 230 223 167 104 114 144 148 167 184 272 229 166 215 197 169 169 153 147 146 170 156 130 144 159 160 207 219 210 244 277 304 295 254 205 214 260 249 244 255 267 250 246 253 260 269 285 309 313 306 303
171 177 181 184 184 188 186 163 158 163 157 140 111 148 183 202 201 152 173 192 186 53 43 87 117 134 159 74 190 193 143 170 179 133 152 167 174 194 195 202 192 131 130 159 199 170 166 246 256 265 256 161 169 232 125 112 110 239 122 106 162 186 143 140 183 172 172 323 308 265 237 214 211 278 278 264 283 282 265 278 288 294 315 335 325 304 302 297
143 160 170 176 176 173 166 153 149 161 158 126 143 191 206 202 185 186 175 146 146 134 105 86 100 137 174 112 189 216 159 119 157 145 180 198 206 196 192 201 191 178 166 157 172 170 158 255 302 339 349 114 162 246 99 119 173 164 130 170 211 173 114 113 210 69 81 256 272 224 248 293 330 295 295 317 305 294 290 288 286 299 340 330 308 295 293 292
121 131 152 167 172 172 164 152 147 156 147 127 182 205 207 170 174 176 157 124 141 140 128 141 166 156 172 168 189 201 174 118 157 168 186 199 235 196 192 232 196 185 190 152 163 197 154 194 316 31 103 336 304 114 59 31 121 125 178 206 187 115 88 108 183 0 44 241 274 266 238 283 330 277 316 359 311 283 281 277 285 321 3 348 351 340 301 289
112 103 101 156 173 181 179 167 152 139 108 142 204 217 177 137 187 162 152 129 130 135 143 165 169 147 171 180 185 184 175 165 172 182 174 184 243 200 174 205 200 186 198 160 153 211 140 146 313 26 153 305 353 94 71 357 58 131 181 172 118 138 168 97 147 185 154 237 281 300 275 259 200 226 299 342 195 244 269 279 285 294 352 30 24 2 325 312
104 84 14 148 169 186 187 176 150 115 108 183 206 220 191 139 232 214 198 148 114 128 162 182 163 125 173 176 168 173 183 179 170 180 180 181 236 217 175 187 196 186 190 153 153 197 134 147 261 322 268 309 12 112 192 231 32 66 109 102 80 132 164 156 149 163 173 202 263 309 317 272 224 213 212 216 212 218 240 265 273 260 186 96 203 311 334 349
92 77 269 208 184 185 174 159 133 127 179 202 198 205 186 117 248 269 249 184 113 126 172 186 163 142 162 166 161 173 181 173 168 182 203 185 208 239 199 189 174 172 170 130 132 168 129 161 215 310 347 201 198 218 190 169 144 117 124 155 175 78 107 155 161 122 139 165 192 289 296 265 247 214 190 207 219 213 205 196 210 201 158 186 221 218 318 22
77 96 266 242 203 177 157 139 121 173 186 208 153 155 208 158 140 306 312 87 114 126 153 155 152 151 155 155 174 179 160 153 172 182 208 200 201 227 215 184 155 146 138 121 156 174 157 165 169 144 188 203 227 265 194 170 168 166 175 186 179 153 124 148 243 244 118 158 171 187 268 263 241 207 195 207 215 201 172 145 135 141 159 201 240 237 260 1
106 150 287 219 182 165 132 111 98 145 157 176 166 159 150 111 120 170 304 44 79 84 89 109 129 147 159 158 159 165 154 154 182 187 204 211 199 205 218 168 148 149 151 160 186 178 124 110 126 156 214 218 247 286 221 167 136 135 186 193 170 159 142 152 208 228 137 180 155 126 267 271 258 211 202 241 258 204 164 138 134 157 178 207 243 253 274 283
150 173 352 212 175 150 85 78 135 105 156 199 174 119 95 97 122 151 212 33 74 93 70 83 131 139 175 168 140 163 169 169 190 195 204 212 206 218 206 153 147 155 160 165 174 164 109 111 128 192 303 308 315 334 14 51 78 129 233 177 161 181 156 148 180 177 162 194 154 108 255 264 281 311 291 274 260 184 164 140 143 175 219 237 243 249 264 268
144 146 12 2 151 144 125 185 159 139 167 139 76 108 105 122 142 139 166 192 147 124 117 147 159 135 173 152 132 173 184 179 196 202 194 187 205 269 140 157 160 162 171 187 178 178 195 162 132 124 25 346 336 333 322 295 190 199 224 190 177 157 105 98 131 115 203 215 167 162 239 252 278 319 349 343 127 138 170 189 168 179 261 259 266 273 276 293
94 125 344 5 120 141 160 196 136 126 141 132 135 174 154 113 175 159 154 155 160 152 143 173 154 104 127 121 87 151 177 152 176 191 176 187 225 1 26 178 183 177 189 242 160 166 186 182 150 156 180 200 209 214 216 201 170 193 211 191 187 158 143 162 144 129 231 223 163 190 235 249 299 324 15 69 122 146 187 225 242 261 246 252 273 286 311 346
117 135 175 20 110 159 193 132 136 144 151 145 155 193 175 181 266 179 136 145 191 146 101 66 140 95 97 128 109 147 187 104 72 158 173 192 220 315 359 18 154 170 97 94 140 143 142 189 190 190 204 210 206 200 158 135 145 207 212 189 188 185 179 174 136 179 215 182 169 225 230 228 271 297 303 191 164 178 205 220 248 262 254 268 274 280 323 346
116 156 162 140 174 196 188 164 167 174 168 163 172 182 176 178 204 329 187 207 204 148 87 24 170 153 166 160 142 159 182 109 69 145 168 179 198 300 343 58 80 44 39 115 157 125 112 219 212 200 222 228 208 194 171 152 171 202 204 193 194 192 183 179 194 213 197 127 233 234 196 218 244 231 232 241 205 211 234 222 236 258 249 253 261 285 328 317
73 83 180 75 82 191 197 182 172 172 171 171 172 164 172 179 179 185 198 186 191 170 143 294 235 198 181 167 154 153 154 144 170 184 157 149 152 48 19 57 64 7 67 112 208 113 137 220 214 188 226 239 210 178 185 177 187 201 200 197 197 189 184 193 213 220 191 177 240 230 161 210 239 208 209 230 206 214 236 215 225 255 248 255 277 320 339 331
57 38 314 351 54 185 243 160 157 168 176 173 180 176 171 181 191 195 152 111 175 220 184 207 223 196 184 174 149 152 167 171 188 199 177 150 145 116 91 124 291 13 88 120 180 142 156 223 203 173 221 242 219 177 189 187 192 206 204 201 196 193 196 201 214 223 210 208 241 241 201 231 242 193 209 232 216 218 246 325 291 281 287 307 332 342 335 337
116 193 314 18 49 34 333 146 156 169 179 177 193 196 178 184 192 194 169 148 175 200 199 210 203 169 181 192 154 180 197 175 162 183 174 155 166 178 160 175 182 50 68 124 162 173 186 221 153 141 207 249 216 167 189 194 196 209 212 209 205 203 207 212 217 221 216 224 245 254 256 260 246 175 209 234 201 207 283 298 281 279 291 314 325 310 306 322
135 35 96 98 51 184 326 44 156 166 180 190 199 193 191 201 195 185 191 193 181 174 192 203 189 148 162 197 223 236 214 140 120 143 150 146 165 181 159 153 151 116 66 123 130 129 174 201 59 110 188 250 212 161 160 150 170 221 228 217 211 209 212 217 217 211 204 216 232 241 252 259 229 169 194 196 154 199 245 252 258 270 266 248 242 259 286 330
123 22 57 104 39 239 170 51 166 180 189 198 195 175 184 202 187 171 185 215 197 192 195 188 170 147 152 198 225 230 184 125 122 131 126 112 117 121 108 108 122 122 122 132 114 125 156 158 124 153 191 241 191 149 130 104 126 231 234 218 211 212 212 209 216 224 213 207 212 219 234 248 204 161 178 162 164 206 232 230 240 253 236 196 169 160 124 38